CZ-6A DEB

Satellite information

Favourite Embed

Satellite Type and Status

DEBRISIN ORBIT

Key statistics

Satellite CZ-6A DEB at a glance.

Uptime

1077

Days in orbit

Revolutions

≈ 14.1

Per day

Orbit

SSO

Sun Synchronous Orbit

Inclination

98.8

Latest

Satellite identification and parameters

Extended collection of information and parameters for CZ-6A DEB.

Object identification

Identified? True

Debris? True

Object name: CZ-6A DEB

International designator: 2022-151RN

Object number (NORAD): 54925

Object ID (CCSDS): 54925

Country: PEOPLES REPUBLIC OF CHINA (PRC)

Current information (Y/N): Y

RCS size: SMALL

Orbital parameters

Period: 101.912 minutes

Inclination: 98.8366 deg

SMA: 7227.311 km

Apoapsis: 878.278 km

Periapsis: 820.075 km

RAAN: 298.1795 deg

Eccentricy: 0.0040266

Argument of periapsis: 283.3113 deg

Mean anomaly: 76.357 deg

Mean motion: 14.1298519 rev/day

Mean motion (dot): 0.00001666 rev/day2

B* drag term: 0.00091038 1/REarth

Two-line elements (TLE)

Creation date: Oct. 22, 2025, 12:06 a.m.

Reference frame: TEME

Reference center: EARTH

Epoch: Oct. 21, 2025, 7:40 p.m. UTC

TLE line 0: 0 CZ-6A DEB

TLE line 1: 1 54925U 22151RN 25294.82011325 .00001666 00000-0 91038-3 0 9993

TLE line 2: 2 54925 98.8366 298.1795 0040266 283.3113 76.3570 14.12985190151024

Live tracking on map

Real-time ground track for satellite CZ-6A DEB.

In-orbit conjunctions

A list of the most updated potential collisions computed for object CZ-6A DEB.

Target Orbit TCA Probability of collision Miss distance Type
SL-16 R/B LEO 2024-11-11 07:43:39 0.0006984851 715.0 (m) ROCKET BODY
SL-16 R/B LEO 2024-11-11 06:01:44 0.0001326241 349.0 (m) ROCKET BODY
FENGYUN 1C DEB SSO 2024-11-09 20:12:57 0.0002643585 687.0 (m) DEBRIS
GGSE 3 LEO 2024-10-16 10:11:48 0.0001087348 849.0 (m) PAYLOAD

Associated space launch

Chinese satellite reported for atmospheric/ocean/environmental/spatial parameter research purposes, details TBD.

CZ-6A DEB was lifted into orbit during the mission ‘Long March 6A | Yunhai 3’, on board a Long March 6A space rocket.

The launch took place on Nov. 11, 2022, 10:52 p.m. from Launch Complex 9A.

For more information about the launch, click the button.

Launch to space Long March 6A | Yunhai 3
Long March 6A | Yunhai 3

Agency: N/A

Status: Launch Successful

Launch date: Nov. 11, 2022, 10:52 p.m. UTC

Rocket: Long March 6A

Launch pad: Launch Complex 9A

Location: Taiyuan Satellite Launch Center, People's Republic of China

...

Latest news about this satellite

There are no fresh news available about this satellite. Check back as we update our databases every day.


Newsletter sign-up

Weekly statistics, charts and insights to help you stay on top of the space industry.